N850WM SAVY-SAVC

Flight info

Callsign N850WM
Flight time 1h 8m
Altitude 24000
Route TRE W18 ROMAX
Aircraft TBM8/L-SDFGRWY/S

Departure

Time 2026-04-23 04:19
Airport El Tehuelche Airport (SAVY)

Arrival

Time 2026-04-23 05:27
Airport General Enrique Mosconi International Airport (SAVC)
Time Latitude Longitude Altitude Speed Heading
2026-04-23 04:11 -42.75576 -65.10067 433 ft 0 kts 58°
2026-04-23 04:16 -42.75573 -65.10056 433 ft 7 kts 79°
2026-04-23 04:16 -42.75624 -65.09986 430 ft 12 kts 149°
2026-04-23 04:16 -42.75695 -65.09930 431 ft 12 kts 146°
2026-04-23 04:17 -42.75690 -65.09787 432 ft 32 kts 60°
2026-04-23 04:17 -42.75552 -65.09461 434 ft 45 kts 58°
2026-04-23 04:17 -42.75395 -65.09117 432 ft 15 kts 65°
2026-04-23 04:17 -42.75344 -65.08995 427 ft 12 kts 10°
2026-04-23 04:18 -42.75371 -65.09082 432 ft 28 kts 237°
2026-04-23 04:18 -42.75572 -65.09516 431 ft 79 kts 238°
2026-04-23 04:18 -42.75918 -65.10263 613 ft 100 kts 244°
2026-04-23 04:18 -42.76258 -65.11088 1026 ft 99 kts 245°
2026-04-23 04:19 -42.76568 -65.11956 1441 ft 103 kts 249°
2026-04-23 04:19 -42.76827 -65.12818 1977 ft 96 kts 250°
2026-04-23 04:19 -42.77065 -65.13667 2417 ft 93 kts 246°
2026-04-23 04:19 -42.77376 -65.14414 2836 ft 91 kts 241°
2026-04-23 04:20 -42.77802 -65.15055 3158 ft 103 kts 208°
2026-04-23 04:20 -42.78557 -65.15192 3342 ft 122 kts 189°
2026-04-23 04:20 -42.79396 -65.15390 3889 ft 113 kts 197°
2026-04-23 04:20 -42.80142 -65.15551 4380 ft 110 kts 195°
2026-04-23 04:21 -42.80919 -65.15731 4738 ft 114 kts 195°
2026-04-23 04:21 -42.81710 -65.15909 5122 ft 115 kts 195°
2026-04-23 04:21 -42.82504 -65.16089 5542 ft 115 kts 195°
2026-04-23 04:21 -42.83301 -65.16270 5931 ft 117 kts 194°
2026-04-23 04:22 -42.84103 -65.16453 6319 ft 118 kts 193°
2026-04-23 04:22 -42.84920 -65.16639 6693 ft 119 kts 194°
2026-04-23 04:22 -42.85747 -65.16828 7061 ft 121 kts 194°
2026-04-23 04:22 -42.86581 -65.17019 7424 ft 122 kts 194°
2026-04-23 04:23 -42.87423 -65.17210 7803 ft 123 kts 194°
2026-04-23 04:23 -42.88271 -65.17404 8179 ft 124 kts 195°
2026-04-23 04:23 -42.89114 -65.17597 8525 ft 125 kts 195°
2026-04-23 04:23 -42.89976 -65.17793 8895 ft 126 kts 195°
2026-04-23 04:24 -42.90844 -65.17992 9262 ft 127 kts 195°
2026-04-23 04:24 -42.91721 -65.18193 9627 ft 128 kts 196°
2026-04-23 04:24 -42.92605 -65.18393 9978 ft 129 kts 196°
2026-04-23 04:24 -42.93501 -65.18599 10291 ft 131 kts 196°
2026-04-23 04:25 -42.94409 -65.18806 10609 ft 133 kts 197°
2026-04-23 04:25 -42.95320 -65.19015 10926 ft 135 kts 197°
2026-04-23 04:25 -42.96253 -65.19229 11249 ft 137 kts 197°
2026-04-23 04:25 -42.97202 -65.19445 11567 ft 139 kts 197°
2026-04-23 04:26 -42.98160 -65.19666 11889 ft 140 kts 198°
2026-04-23 04:26 -42.99130 -65.19895 12181 ft 143 kts 198°
2026-04-23 04:26 -43.00118 -65.20119 12467 ft 144 kts 198°
2026-04-23 04:26 -43.01119 -65.20347 12750 ft 147 kts 199°
2026-04-23 04:27 -43.02121 -65.20572 13035 ft 149 kts 198°
2026-04-23 04:27 -43.03147 -65.20803 13324 ft 150 kts 199°
2026-04-23 04:27 -43.04183 -65.21041 13614 ft 152 kts 199°
2026-04-23 04:28 -43.06289 -65.21525 14149 ft 154 kts 199°
2026-04-23 04:28 -43.07349 -65.21770 14413 ft 155 kts 199°
2026-04-23 04:28 -43.08418 -65.22015 14677 ft 156 kts 199°
2026-04-23 04:28 -43.09492 -65.22262 14939 ft 157 kts 199°
2026-04-23 04:29 -43.10573 -65.22509 15201 ft 158 kts 200°
2026-04-23 04:29 -43.11659 -65.22757 15460 ft 159 kts 200°
2026-04-23 04:29 -43.12752 -65.23009 15720 ft 160 kts 200°
2026-04-23 04:29 -43.13853 -65.23261 15981 ft 161 kts 200°
2026-04-23 04:30 -43.14944 -65.23514 16241 ft 162 kts 200°
2026-04-23 04:30 -43.16055 -65.23776 16513 ft 163 kts 200°
2026-04-23 04:30 -43.17178 -65.24036 16761 ft 165 kts 200°
2026-04-23 04:30 -43.18312 -65.24295 17023 ft 166 kts 200°
2026-04-23 04:31 -43.19454 -65.24557 17285 ft 167 kts 201°
2026-04-23 04:31 -43.20555 -65.24946 17545 ft 157 kts 221°
2026-04-23 04:31 -43.21480 -65.25718 17791 ft 157 kts 223°
2026-04-23 04:31 -43.22435 -65.26460 18064 ft 158 kts 222°
2026-04-23 04:32 -43.23081 -65.26966 18236 ft 159 kts 222°
2026-04-23 04:32 -43.24032 -65.27711 18462 ft 160 kts 223°
2026-04-23 04:32 -43.24996 -65.28470 18681 ft 160 kts 223°
2026-04-23 04:32 -43.25969 -65.29235 18904 ft 161 kts 223°
2026-04-23 04:33 -43.26946 -65.30005 19123 ft 162 kts 223°
2026-04-23 04:33 -43.27934 -65.30782 19337 ft 163 kts 223°
2026-04-23 04:33 -43.28924 -65.31562 19568 ft 164 kts 223°
2026-04-23 04:33 -43.29905 -65.32335 19788 ft 165 kts 224°
2026-04-23 04:34 -43.30905 -65.33122 20010 ft 166 kts 224°
2026-04-23 04:34 -43.31910 -65.33916 20236 ft 167 kts 224°
2026-04-23 04:34 -43.32923 -65.34714 20466 ft 168 kts 224°
2026-04-23 04:34 -43.33940 -65.35518 20696 ft 169 kts 224°
2026-04-23 04:35 -43.34965 -65.36326 20930 ft 170 kts 224°
2026-04-23 04:35 -43.35996 -65.37140 21157 ft 171 kts 224°
2026-04-23 04:35 -43.37033 -65.37960 21372 ft 172 kts 224°
2026-04-23 04:35 -43.38076 -65.38783 21595 ft 173 kts 225°
2026-04-23 04:36 -43.39122 -65.39611 21816 ft 174 kts 225°
2026-04-23 04:36 -43.40162 -65.40434 22031 ft 175 kts 225°
2026-04-23 04:36 -43.41222 -65.41272 22268 ft 176 kts 225°
2026-04-23 04:36 -43.42303 -65.42136 22395 ft 182 kts 225°
2026-04-23 04:37 -43.43359 -65.42947 22862 ft 168 kts 225°
2026-04-23 04:37 -43.44349 -65.43716 23159 ft 161 kts 227°
2026-04-23 04:37 -43.45319 -65.44495 23337 ft 162 kts 227°
2026-04-23 04:37 -43.46293 -65.45275 23528 ft 161 kts 227°
2026-04-23 04:38 -43.47267 -65.46052 23678 ft 162 kts 227°
2026-04-23 04:38 -43.48249 -65.46828 23825 ft 163 kts 227°
2026-04-23 04:38 -43.49238 -65.47609 23933 ft 166 kts 228°
2026-04-23 04:38 -43.50263 -65.48459 23944 ft 178 kts 227°
2026-04-23 04:39 -43.51345 -65.49332 23953 ft 187 kts 226°
2026-04-23 04:39 -43.52504 -65.50251 23954 ft 197 kts 225°
2026-04-23 04:39 -43.53719 -65.51216 23955 ft 206 kts 224°
2026-04-23 04:39 -43.54992 -65.52229 23959 ft 216 kts 224°
2026-04-23 04:40 -43.56319 -65.53286 23950 ft 225 kts 223°
2026-04-23 04:40 -43.57697 -65.54384 23950 ft 233 kts 223°
2026-04-23 04:40 -43.59123 -65.55523 23949 ft 240 kts 223°
2026-04-23 04:40 -43.60589 -65.56693 23950 ft 246 kts 222°
2026-04-23 04:41 -43.62072 -65.57877 23956 ft 252 kts 222°
2026-04-23 04:41 -43.63610 -65.59105 23952 ft 257 kts 222°
2026-04-23 04:41 -43.65171 -65.60353 23949 ft 262 kts 221°
2026-04-23 04:41 -43.66760 -65.61620 23949 ft 265 kts 221°
2026-04-23 04:42 -43.68365 -65.62905 23950 ft 268 kts 221°
2026-04-23 04:42 -43.69988 -65.64205 23954 ft 271 kts 221°
2026-04-23 04:42 -43.71629 -65.65519 23952 ft 273 kts 221°
2026-04-23 04:42 -43.73279 -65.66842 23949 ft 275 kts 221°
2026-04-23 04:43 -43.74918 -65.68156 23943 ft 276 kts 221°
2026-04-23 04:43 -43.76585 -65.69493 23939 ft 277 kts 221°
2026-04-23 04:43 -43.78257 -65.70835 23940 ft 278 kts 221°
2026-04-23 04:43 -43.79939 -65.72186 23936 ft 279 kts 221°
2026-04-23 04:44 -43.81621 -65.73538 23935 ft 280 kts 221°
2026-04-23 04:44 -43.83307 -65.74892 23936 ft 280 kts 221°
2026-04-23 04:44 -43.84992 -65.76249 23931 ft 280 kts 221°
2026-04-23 04:44 -43.86682 -65.77611 23930 ft 281 kts 221°
2026-04-23 04:45 -43.88376 -65.78975 23948 ft 281 kts 221°
2026-04-23 04:45 -43.90072 -65.80342 23943 ft 282 kts 221°
2026-04-23 04:45 -43.91746 -65.81694 23942 ft 282 kts 221°
2026-04-23 04:45 -43.93448 -65.83069 23935 ft 283 kts 221°
2026-04-23 04:46 -43.95150 -65.84442 23938 ft 283 kts 221°
2026-04-23 04:46 -43.96851 -65.85819 23936 ft 283 kts 221°
2026-04-23 04:46 -43.98549 -65.87194 23937 ft 283 kts 221°
2026-04-23 04:46 -44.00253 -65.88571 23938 ft 283 kts 221°
2026-04-23 04:47 -44.01953 -65.89948 23939 ft 283 kts 221°
2026-04-23 04:47 -44.03654 -65.91329 23936 ft 283 kts 221°
2026-04-23 04:47 -44.05355 -65.92707 23932 ft 283 kts 221°
2026-04-23 04:47 -44.07058 -65.94089 23938 ft 283 kts 221°
2026-04-23 04:48 -44.08756 -65.95468 23934 ft 283 kts 221°
2026-04-23 04:48 -44.10455 -65.96850 23935 ft 283 kts 221°
2026-04-23 04:48 -44.12133 -65.98215 23942 ft 283 kts 221°
2026-04-23 04:48 -44.13832 -65.99599 23936 ft 283 kts 221°
2026-04-23 04:49 -44.15533 -66.00982 23933 ft 283 kts 221°
2026-04-23 04:49 -44.17236 -66.02371 23931 ft 283 kts 221°
2026-04-23 04:49 -44.18938 -66.03758 23932 ft 283 kts 221°
2026-04-23 04:49 -44.20637 -66.05145 23933 ft 283 kts 221°
2026-04-23 04:50 -44.22335 -66.06531 23934 ft 282 kts 221°
2026-04-23 04:50 -44.24012 -66.07902 23935 ft 282 kts 221°
2026-04-23 04:50 -44.25709 -66.09290 23931 ft 282 kts 221°
2026-04-23 04:50 -44.27403 -66.10676 23928 ft 282 kts 221°
2026-04-23 04:51 -44.29099 -66.12065 23931 ft 282 kts 221°
2026-04-23 04:51 -44.30792 -66.13453 23932 ft 282 kts 221°
2026-04-23 04:51 -44.32488 -66.14843 23933 ft 282 kts 221°
2026-04-23 04:51 -44.34184 -66.16234 23931 ft 282 kts 221°
2026-04-23 04:52 -44.35876 -66.17625 23948 ft 282 kts 221°
2026-04-23 04:52 -44.37568 -66.19016 23942 ft 282 kts 221°
2026-04-23 04:52 -44.39264 -66.20409 23936 ft 282 kts 221°
2026-04-23 04:52 -44.40957 -66.21802 23933 ft 282 kts 221°
2026-04-23 04:53 -44.42647 -66.23193 23938 ft 282 kts 221°
2026-04-23 04:53 -44.44336 -66.24584 23934 ft 282 kts 222°
2026-04-23 04:53 -44.46005 -66.25962 23931 ft 282 kts 222°
2026-04-23 04:53 -44.47699 -66.27359 23933 ft 282 kts 222°
2026-04-23 04:54 -44.49389 -66.28755 23935 ft 282 kts 222°
2026-04-23 04:54 -44.51077 -66.30148 23933 ft 281 kts 222°
2026-04-23 04:54 -44.52764 -66.31542 23934 ft 281 kts 222°
2026-04-23 04:54 -44.54449 -66.32936 23929 ft 281 kts 222°
2026-04-23 04:55 -44.56135 -66.34332 23932 ft 281 kts 222°
2026-04-23 04:55 -44.57799 -66.35710 23932 ft 281 kts 222°
2026-04-23 04:55 -44.59487 -66.37109 23941 ft 281 kts 221°
2026-04-23 04:55 -44.61168 -66.38505 23935 ft 281 kts 221°
2026-04-23 04:56 -44.62849 -66.39899 23930 ft 280 kts 221°
2026-04-23 04:56 -44.64525 -66.41291 23928 ft 280 kts 221°
2026-04-23 04:56 -44.66201 -66.42684 23928 ft 280 kts 221°
2026-04-23 04:56 -44.67877 -66.44078 23928 ft 279 kts 222°
2026-04-23 04:57 -44.69494 -66.45454 23449 ft 270 kts 224°
2026-04-23 04:57 -44.71105 -66.46822 22641 ft 269 kts 222°
2026-04-23 04:57 -44.72673 -66.48202 21967 ft 266 kts 225°
2026-04-23 04:57 -44.74188 -66.49528 21855 ft 257 kts 221°
2026-04-23 04:58 -44.75760 -66.50745 21551 ft 258 kts 219°
2026-04-23 04:58 -44.77331 -66.51944 21275 ft 256 kts 220°
2026-04-23 04:58 -44.78877 -66.53161 20986 ft 254 kts 220°
2026-04-23 04:58 -44.80414 -66.54377 20695 ft 252 kts 220°
2026-04-23 04:59 -44.81943 -66.55578 20417 ft 251 kts 220°
2026-04-23 04:59 -44.83465 -66.56771 20146 ft 249 kts 220°
2026-04-23 04:59 -44.84978 -66.57962 19842 ft 249 kts 219°
2026-04-23 04:59 -44.86486 -66.59149 19559 ft 247 kts 219°
2026-04-23 05:00 -44.87994 -66.60335 19277 ft 246 kts 219°
2026-04-23 05:00 -44.89471 -66.61498 19006 ft 245 kts 219°
2026-04-23 05:00 -44.90951 -66.62665 18734 ft 243 kts 219°
2026-04-23 05:00 -44.92427 -66.63829 18452 ft 242 kts 219°
2026-04-23 05:01 -44.93896 -66.64988 18183 ft 241 kts 218°
2026-04-23 05:01 -44.95350 -66.66134 17912 ft 237 kts 219°
2026-04-23 05:01 -44.96787 -66.67269 17603 ft 236 kts 219°
2026-04-23 05:01 -44.98211 -66.68397 17292 ft 234 kts 219°
2026-04-23 05:02 -44.99628 -66.69517 16981 ft 233 kts 218°
2026-04-23 05:02 -45.01036 -66.70631 16669 ft 231 kts 218°
2026-04-23 05:02 -45.02463 -66.71694 16383 ft 231 kts 214°
2026-04-23 05:02 -45.03871 -66.72767 16102 ft 228 kts 217°
2026-04-23 05:03 -45.05225 -66.73875 15807 ft 227 kts 217°
2026-04-23 05:03 -45.06596 -66.74976 15529 ft 226 kts 216°
2026-04-23 05:03 -45.07960 -66.76069 15244 ft 224 kts 216°
2026-04-23 05:03 -45.09317 -66.77143 14966 ft 223 kts 216°
2026-04-23 05:04 -45.10682 -66.78164 14689 ft 221 kts 215°
2026-04-23 05:04 -45.12002 -66.79244 14412 ft 217 kts 219°
2026-04-23 05:04 -45.13300 -66.80334 14134 ft 217 kts 217°
2026-04-23 05:04 -45.14603 -66.81411 13827 ft 217 kts 215°
2026-04-23 05:05 -45.15922 -66.82360 13562 ft 214 kts 216°
2026-04-23 05:05 -45.17206 -66.83393 13259 ft 211 kts 217°
2026-04-23 05:05 -45.18468 -66.84425 12956 ft 208 kts 217°
2026-04-23 05:05 -45.19707 -66.85513 12546 ft 213 kts 216°
2026-04-23 05:06 -45.21026 -66.86475 12245 ft 212 kts 212°
2026-04-23 05:06 -45.22317 -66.87451 11939 ft 209 kts 215°
2026-04-23 05:06 -45.23572 -66.88479 11624 ft 207 kts 215°
2026-04-23 05:06 -45.24820 -66.89490 11315 ft 206 kts 214°
2026-04-23 05:07 -45.26062 -66.90485 11020 ft 204 kts 214°
2026-04-23 05:07 -45.27292 -66.91467 10672 ft 204 kts 214°
2026-04-23 05:07 -45.28508 -66.92444 10336 ft 202 kts 214°
2026-04-23 05:07 -45.29730 -66.93420 10009 ft 201 kts 214°
2026-04-23 05:08 -45.30940 -66.94389 9673 ft 199 kts 214°
2026-04-23 05:08 -45.32136 -66.95347 9309 ft 196 kts 213°
2026-04-23 05:08 -45.33317 -66.96293 8958 ft 193 kts 213°
2026-04-23 05:08 -45.34470 -66.97217 8721 ft 182 kts 213°
2026-04-23 05:09 -45.35546 -66.98076 8464 ft 175 kts 213°
2026-04-23 05:09 -45.36570 -66.98964 8242 ft 163 kts 216°
2026-04-23 05:09 -45.37584 -66.99719 7697 ft 175 kts 210°
2026-04-23 05:09 -45.38676 -67.00584 7225 ft 180 kts 212°
2026-04-23 05:10 -45.39756 -67.01462 6877 ft 177 kts 212°
2026-04-23 05:10 -45.40811 -67.02315 6527 ft 176 kts 212°
2026-04-23 05:10 -45.41873 -67.03167 6159 ft 174 kts 212°
2026-04-23 05:10 -45.42926 -67.04015 5779 ft 173 kts 212°
2026-04-23 05:11 -45.43969 -67.04855 5374 ft 171 kts 213°
2026-04-23 05:11 -45.45003 -67.05689 4967 ft 170 kts 212°
2026-04-23 05:11 -45.46028 -67.06516 4560 ft 168 kts 212°
2026-04-23 05:11 -45.47044 -67.07333 4148 ft 167 kts 213°
2026-04-23 05:12 -45.48052 -67.08146 3742 ft 166 kts 213°
2026-04-23 05:12 -45.49033 -67.08939 3387 ft 162 kts 214°
2026-04-23 05:12 -45.50021 -67.09727 3125 ft 162 kts 214°
2026-04-23 05:12 -45.50994 -67.10501 2913 ft 158 kts 214°
2026-04-23 05:13 -45.51979 -67.11267 2900 ft 164 kts 213°
2026-04-23 05:13 -45.53007 -67.12046 2904 ft 169 kts 213°
2026-04-23 05:13 -45.54054 -67.12842 2905 ft 172 kts 214°
2026-04-23 05:14 -45.56164 -67.14478 2900 ft 174 kts 214°
2026-04-23 05:14 -45.57230 -67.15320 2902 ft 175 kts 214°
2026-04-23 05:14 -45.58297 -67.16173 2901 ft 176 kts 214°
2026-04-23 05:14 -45.59357 -67.17060 2902 ft 177 kts 215°
2026-04-23 05:15 -45.60411 -67.17950 2898 ft 176 kts 219°
2026-04-23 05:15 -45.61472 -67.18808 2898 ft 175 kts 219°
2026-04-23 05:15 -45.62530 -67.19669 2899 ft 173 kts 227°
2026-04-23 05:15 -45.63432 -67.20683 2877 ft 169 kts 220°
2026-04-23 05:16 -45.64513 -67.21398 2891 ft 173 kts 212°
2026-04-23 05:16 -45.65599 -67.22146 2885 ft 174 kts 217°
2026-04-23 05:16 -45.66640 -67.23033 2887 ft 175 kts 219°
2026-04-23 05:16 -45.67332 -67.23625 2889 ft 175 kts 218°
2026-04-23 05:17 -45.68746 -67.24796 2890 ft 176 kts 218°
2026-04-23 05:17 -45.69446 -67.25381 2851 ft 175 kts 219°
2026-04-23 05:17 -45.70562 -67.26179 2013 ft 188 kts 212°
2026-04-23 05:17 -45.71635 -67.27154 1894 ft 176 kts 221°
2026-04-23 05:18 -45.72628 -67.28105 1894 ft 168 kts 219°
2026-04-23 05:18 -45.73604 -67.28983 1893 ft 165 kts 218°
2026-04-23 05:18 -45.74591 -67.29846 1893 ft 168 kts 218°
2026-04-23 05:18 -45.75591 -67.30724 1894 ft 169 kts 219°
2026-04-23 05:19 -45.76444 -67.31821 1891 ft 163 kts 245°
2026-04-23 05:19 -45.76707 -67.33236 1755 ft 130 kts 256°
2026-04-23 05:19 -45.76891 -67.34365 1593 ft 105 kts 257°
2026-04-23 05:19 -45.77036 -67.35321 1458 ft 95 kts 257°
2026-04-23 05:20 -45.77170 -67.36229 1331 ft 91 kts 258°
2026-04-23 05:20 -45.77281 -67.37054 1169 ft 78 kts 259°
2026-04-23 05:20 -45.77387 -67.37816 1104 ft 88 kts 257°
2026-04-23 05:20 -45.77496 -67.38693 996 ft 88 kts 259°
2026-04-23 05:21 -45.77619 -67.39587 866 ft 98 kts 259°
2026-04-23 05:21 -45.77743 -67.40587 719 ft 104 kts 262°
2026-04-23 05:21 -45.77865 -67.41586 663 ft 100 kts 261°
2026-04-23 05:21 -45.77986 -67.42535 530 ft 96 kts 257°
2026-04-23 05:22 -45.78123 -67.43513 394 ft 103 kts 259°
2026-04-23 05:22 -45.78241 -67.44462 248 ft 93 kts 258°
2026-04-23 05:22 -45.78359 -67.45306 197 ft 71 kts 262°
2026-04-23 05:22 -45.78408 -67.45677 201 ft 55 kts 260°
2026-04-23 05:27 -45.78437 -67.45906 195 ft 46 kts 259°
2026-04-23 05:27 -45.78484 -67.46269 191 ft 30 kts 259°
2026-04-23 05:27 -45.78533 -67.46624 189 ft 31 kts 259°
2026-04-23 05:27 -45.78653 -67.46816 200 ft 37 kts 172°
2026-04-23 05:28 -45.78907 -67.46823 193 ft 33 kts 226°
2026-04-23 05:28 -45.78951 -67.46972 198 ft 5 kts 229°
2026-04-23 05:28 -45.78957 -67.46983 196 ft 0 kts 229°